Starlink 30120

operational
NORAD ID: 56824 Int'l Des: 2023-079 Owner: SPXS Country: US Constellation: starlink
LEOCIRCULAR

About Starlink 30120

Description loading...

Live Position

Loading 3D Globe...

Upcoming Passes

Altitude History

Altitude vs Time

uPlot chart will show altitude changes over time

Two-Line Element Set

1 56824U 23079B 25340.15802797 -.00000594 00000-0 -28903-4 0 9995
2 56824 43.0022 255.7027 0000971 279.2764 80.7969 15.02534484139132
Epoch: Dec 6, 2025 • Age: 26 hours

Current Status

Altitude 558.7 km
Velocity 7.59 km/s
Sub-Earth Point 16.81°N, 115.4°W
Launch Date Jun 4, 2023
Age 2.5 years
Type internet

Technical Details

Classification Payload
Mass 730.00 kg
Dry Mass 700.00 kg
Total Mass 730.00 kg
Length 0.30 m
Diameter 4.10 m
Span 29.00 m
Shape Box + pan
Manufacturer SPXS
Bus Type Starlink V2M
Phase Status In Orbit
Owner/State SPXS/US

Large Constellations

Loading constellations...